Location: Kalberh�ni
(46.4610°N, 7.2453°E)
Time: 05:19:48
(UTC+00:00)

Cosmos 1802 Rocket - Pass Details

Date: 24 October 2021
Orbit: 955 x 1010 km, 82.9° (Epoch: 05 December)

Event Time Altitude Azimuth Distance (km) Brightness Sun altitude
Rises 04:54:37 0° 0° (N) 3,677 7.0 -12.1°
Reaches altitude 10° 04:57:43 10° 15° (NNE) 2,734 6.5 -11.5°
Maximum altitude 05:02:36 23° 66° (ENE) 1,950 6.4 -10.7°
Drops below altitude 10° 05:07:30 10° 118° (ESE) 2,751 7.6 -9.9°
Sets 05:10:36 0° 132° (SE) 3,705 8.0 -9.3°
